COSMOS 1275 DEB, 19025

Orbit data source: Space-Track

COSMOS 1275 DEB, 19025 is space debris in LEO originally from a launch on Thu, 04 Jun 1981 UTC launched from the Plesetsk Missile And Space Complex (PKMTR). Debris objects in space refer to the collection of defunct objects orbiting the Earth. Examples of debris include non-operational satellites, rocket bodies, and fragments generated from explosions, collisions, or faulty payload assembly.

Loading next visibility...
Identifier
19025, 1981-053MC
Orbit
LEO
Country
Flag of CISCIS
Related business
Manufacturer
Unknown
Mission
Spacecraft
Bus & Motor
Unknown
Mass
Unknown
Launch date (UTC)
1981-06-04 (45 years ago)
Launch vehicle
Unknown
Launch site
Plesetsk Missile And Space Complex (PKMTR)
Object type
Payload
Rocket body
Debris
Shape & HBR
Unknown shape, 0.1 m
Radar Cross Section
Small (<0.1 m²)

Expand to show TLE details & history
Last TLE update: 1 day ago

TLE from 1 day ago
0 COSMOS 1275 DEB
1 19025U 81053MC  25352.50319661  .00003770  00000-0  14626-2 0  9990
2 19025  82.7042 269.2402 0025612 350.5763   9.4939 14.29579424 77401
Epoch: 2025-12-18T12:04Z
TLE epoch observation values (Epoch: 2025-12-18T12:04:36.187Z)
Latitude
0.00004°
Longitude
0.73166°
Altitude
777.988 km
Speed
7.474 km/s
True Right ascension
17h 56m 57s
True Declination
0° 00' 00"
Sunlit
Object was in daylight at epoch
Visualization orbit readout
Latitude
Unknown
Longitude
Unknown
Altitude
Unknown
Speed
Unknown
Apparent Right ascension
Unknown
Apparent Declination
Unknown
Sunlit
N/A
Visualization observer readout
Local Sidereal Time
14:01:38
Azimuth
Unknown
Elevation
Unknown
Doppler factor
Unknown
Orbital elements
Apogee altitude
808.58 km
Perigee altitude
771.861 km
Semi-major axis
7,168.357 km
Eccentricity
0.00256
Inclination
82.7042°
RAAN
269.2402°
Arg. of periapsis
350.5763°
True anomaly
9.54246°
Mean anomaly
9.4939°
Eccentric anomaly
9.51817°
Mean motion
3.57613 °/min
Orbital period
100.67 mins
BSTAR
0.0014626
Loading maneuver chart data...
Computing Atmospheric mass density...

Documentation

Showing up to 5 results
|